Location: Croagnes
(43.9363°N, 5.3265°E)
Time: 22:06:36
(UTC+00:00)

Meteor 1-16 Rocket - Pass Details

Date: 01 October 2020
Orbit: 790 x 908 km, 81.2° (Epoch: 22 October)

Event Time Altitude Azimuth Distance (km) Brightness Sun altitude
Exits shadow 21:09:46 29° 308° (NW) 1,580 6.0 -39.5°
Drops below altitude 10° 21:13:57 10° 351° (N) 2,562 7.2 -40.0°
Sets 21:16:42 0° 2° (N) 3,490 7.9 -40.4°
